This demonstration page uses our WeatherBlox Daily Observations layout. Learn more.

Left ArrowRight Arrow

44.8408, -93.29828

Hourly Observations for May 24, 2015

Temp ( °F °C ) Dew Point ( °F °C ) Humidity (%) Winds ( mph kmh ) Pressure ( in mb ) Visibility ( mi km ) Precip ( " mm )
12:53 am 00:53 Cloudy 62 16.7 47 8.3 58 58 ENE 8 13 30.11 1020 10 16 0.00 0.03
1:53 am 01:53 Mostly Cloudy 62 16.7 48 8.9 60 60 E 6 9 30.10 1019 10 16 0.00 0.00
2:53 am 02:53 Cloudy 60 15.6 51 10.6 72 72 NE 5 7 30.10 1019 10 16 0.02 0.51
3:53 am 03:53 Cloudy 61 16.1 50 10 67 67 ENE 5 7 30.09 1019 10 16 0.00 0.00
4:53 am 04:53 Cloudy 61 16.1 48 8.9 63 63 ENE 6 9 30.07 1018 10 16 0.00 0.00
5:53 am 05:53 Mostly Cloudy 61 16.1 48 8.9 63 63 ENE 7 11 30.05 1018 10 16 0.00 0.00
6:53 am 06:53 Cloudy 62 16.7 49 9.4 62 62 E 8 13 30.04 1017 10 16 0.00 0.00
7:53 am 07:53 Cloudy 62 16.7 50 10 65 65 ESE 6 9 30.05 1018 10 16 0.00 0.00
8:53 am 08:53 Cloudy 63 17.2 51 10.6 65 65 ESE 8 13 30.04 1017 10 16 0.00 0.00
9:53 am 09:53 Cloudy with Light Rain 63 17.2 54 12.2 73 73 E 9 15 30.02 1017 8 13 0.00 0.03
10:53 am 10:53 Cloudy with Light Rain 62 16.7 55 12.8 78 78 E 9 15 30.03 1017 5 8 0.03 0.76
11:53 am 11:53 Cloudy with Light Rain 63 17.2 56 13.3 78 78 E 9 15 30.02 1017 7 11 0.01 0.25
12:53 pm 12:53 Cloudy with Light Rain 63 17.2 57 13.9 81 81 ESE 16 26 30.00 1016 8 13 0.01 0.25
1:53 pm 13:53 Cloudy with Light Rain 61 16.1 57 13.9 87 87 E 15 24 29.98 1015 5 8 0.03 0.76
2:03 pm 14:03 Cloudy with Light Rain 61 16 57 14 88 88 E 13 20 29.94 1014 8 13 0.00 0.00
2:53 pm 14:53 Cloudy with Light Rain 61 16.1 58 14.4 90 90 E 12 19 29.95 1014 8 13 0.03 0.76
3:10 pm 15:10 Cloudy with Light Rain 61 16.1 58 14.4 90 90 E 10 17 29.94 1014 8 13 0.01 0.25
3:35 pm 15:35 Cloudy with Light Rain 61 16.1 58 14.4 90 90 E 12 19 29.94 1014 8 13 0.02 0.51
3:53 pm 15:53 Cloudy with Light Rain 61 16.1 58 14.4 90 90 ENE 12 19 29.93 1013 6 10 0.03 0.76
4:13 pm 16:13 Cloudy with Light Rain 61 16.1 58 14.4 90 90 ENE 10 17 29.94 1014 5 8 0.01 0.25
4:40 pm 16:40 Cloudy with Light Rain 61 16 57 14 88 88 E 12 19 29.91 1013 4 6 0.00 0.00
4:53 pm 16:53 Cloudy with Light Rain 60 15.6 58 14.4 93 93 E 10 17 29.90 1013 4 6 0.05 1.27
5:09 pm 17:09 Cloudy with Light Rain 60 15.6 58 14.4 93 93 ENE 12 19 29.91 1013 5 8 0.01 0.25
5:46 pm 17:46 Cloudy with Light Rain 61 16 57 14 88 88 E 13 20 29.91 1013 3 5 0.00 0.00
5:53 pm 17:53 Cloudy with Light Rain 60 15.6 58 14.4 93 93 ENE 10 17 29.89 1012 2 3 0.04 1.02
6:20 pm 18:20 Cloudy with Light Rain 61 16 57 14 88 88 ENE 10 17 29.88 1012 3 5 0.00 0.00
6:29 pm 18:29 Cloudy with Light Rain 60 15.6 58 14.4 93 93 ENE 9 15 29.88 1012 4 6 0.02 0.51
6:53 pm 18:53 Cloudy with Light Rain 60 15.6 58 14.4 93 93 ENE 12 19 29.87 1011 5 8 0.03 0.76
6:59 pm 18:59 Cloudy with Light Rain 60 15.6 58 14.4 93 93 ENE 12 19 29.85 1011 2 3 0.01 0.25
7:21 pm 19:21 Cloudy with Light Rain 60 15.6 58 14.4 93 93 E 13 20 29.85 1011 3 5 0.02 0.51
7:53 pm 19:53 Cloudy with Drizzle 60 15.6 58 14.4 93 93 ENE 10 17 29.85 1011 6 10 0.02 0.51
8:53 pm 20:53 Cloudy with Light Rain 59 15 58 14.4 96 96 ENE 12 19 29.83 1010 3 5 0.01 0.25
9:38 pm 21:38 Cloudy with Light Rain 59 15 57 14 94 94 ENE 10 17 29.83 1010 3 4 0.00 0.00
9:53 pm 21:53 Cloudy with Light Rain 59 15 57 13.9 93 93 ENE 13 20 29.82 1010 3 5 0.04 1.02
10:48 pm 22:48 Cloudy with Light Rain 59 15 57 14 94 94 ENE 10 17 29.80 1009 3 4 0.00 0.00
10:53 pm 22:53 Cloudy with Light Rain 58 14.4 57 13.9 97 97 ENE 10 17 29.80 1009 3 4 0.04 1.02
11:05 pm 23:05 Cloudy with Light Rain 58 14.4 57 13.9 97 97 ENE 9 15 29.80 1009 3 5 0.01 0.25
11:34 pm 23:34 Cloudy with Light Rain 57 14 57 14 100 100 ENE 10 17 29.77 1008 3 4 0.00 0.00
11:50 pm 23:50 Cloudy with Light Rain 57 14 57 14 100 100 E 9 15 29.77 1008 3 5 0.00 0.00
11:53 pm 23:53 Cloudy with Light Rain 58 14.4 57 13.9 97 97 ENE 9 15 29.77 1008 3 5 0.06 1.52

Powered by AerisWeather